Location: Carri�res
(48.9069°N, 2.1792°E)
Time: 02:52:53
(UTC+00:00)

CZ-4C R/B - Pass Details

Date: 17 January 2021
Orbit: 407 x 488 km, 97.7° (Epoch: 26 February)

Event Time Altitude Azimuth Distance (km) Brightness Sun altitude
Rises 17:10:08 0° 12° (NNE) 2,359 6.2 -7.4°
Reaches altitude 10° 17:12:08 10° 12° (NNE) 1,487 5.2 -7.7°
Maximum altitude 17:15:18 83° 286° (WNW) 418 2.8 -8.2°
Drops below altitude 10° 17:18:26 10° 197° (SSW) 1,472 6.1 -8.6°
Sets 17:20:25 0° 197° (SSW) 2,332 7.1 -8.9°
